Regional Weather Roundup
Issued by NWS

Home | Current Version | Previous Version | Text Only | Print | Product List | Glossary On
Versions: 1 2 3 4 5 6 7 8 9 10 11 12 13 14 15 16 17 18 19 20 21 22 23 24 25 26 27 28 29 30 31 32 33 34 35 36 37 38 39 40 41 42 43 44 45 46 47 48 49 50
000
ASUS43 KDTX 280310
RWRMI
MICHIGAN HOURLY REGIONAL WEATHER ROUNDUP
NATIONAL WEATHER SERVICE DETROIT/PONTIAC MI
1000 PM EST FRI FEB 27 2015

NOTE: "FAIR" INDICATES FEW OR NO CLOUDS BELOW 12,000 FEET WITH NO
SIGNIFICANT WEATHER AND/OR OBSTRUCTION TO VISIBILITY.

MIZ047>049-052>055-059>063-066>070-074>076-081>083-280400-
SOUTHEAST LOWER MICHIGAN

CITY           SKY/WX    TMP DP  RH WIND       PRES   REMARKS
ADRIAN         FAIR       5  -4  66 SW3       30.65R
ALMA           CLEAR      9   1  67 SW5       30.60R WCI   1
ANN ARBOR      FAIR      -2  -7  79 W5        30.63R WCI -12
BAD AXE        CLEAR      7  -1  69 SW7       30.58R WCI  -5
CARO           CLEAR      1  -5  76 SW3       30.59R
DETROIT CITY   CLEAR     13  -2  51 SW5       30.64R WCI   5
DETROIT        CLEAR      8  -4  58 S7        30.65R WCI  -3
FLINT          CLEAR     11  -2  56 SW7       30.60R WCI   0
GROSSE ILE     CLEAR      3  -4  72 SW5       30.64R WCI  -6
HILLSDALE      CLEAR      9  -2  61 SW3       30.60R
HOWELL         CLEAR      9  -2  61 SW5       30.60R WCI   0

CITY           SKY/WX    TMP DP  RH WIND       PRES   REMARKS
JACKSON        FAIR       5  -2  72 SW5       30.61R WCI  -4
LAMBERTVILLE   CLEAR     10  -2  56 SW5       30.67R WCI   2
LANSING        CLEAR     11   0  61 SW8       30.61R WCI  -1
LAPEER         FAIR       2  -5  72 SW3       30.59R
MASON          CLEAR      6  -1  73 CALM      30.61R
MONROE         CLEAR      9  -4  56 CALM      30.64R
MT. CLEMENS    CLEAR      5  -4  66 SW6       30.61R WCI  -5
PONTIAC        CLEAR      6  -4  63 SW3       30.59R
PORT HOPE        N/A     10  -2  58 SW7       30.56R WCI  -1
PORT HURON     CLEAR      1  -4  78 S5        30.62R WCI  -8
TRI CITIES     CLEAR     11   2  67 SW8       30.60R WCI  -1
TROY           CLEAR     13  -2  51 SW3       30.65R
SAGINAW HB     CLEAR     10   1  67 SW7       30.60R WCI   0
$$
MIZ043>046-050>051-056>058-064>065-071>073-077>080-280400-
SOUTHWEST LOWER MICHIGAN

CITY           SKY/WX    TMP DP  RH WIND       PRES   REMARKS
BATTLE CREEK   CLEAR      7  -4  60 SW6       30.61R WCI  -3
BENTON HARBOR  CLEAR      7  -2  66 S6        30.65R WCI  -3
BIG RAPIDS     CLEAR      4  -2  75 CALM      30.55R
COLDWATER      FAIR       6  -2  68 SW5       30.63R WCI  -3
FREMONT        FAIR       8   0  70 CALM      30.59R
HOLLAND        CLEAR      8   0  69 S5        30.63R WCI   0
GRAND RAPIDS   CLEAR     10   1  67 SW9       30.61R WCI  -3
IONIA          FAIR       8   1  73 SW7       30.60R WCI  -4
KALAMAZOO      CLEAR      8  -4  58 SW6       30.63R WCI  -2
LUDINGTON      CLEAR     18   6  58 W10       30.57R WCI   6
MARSHALL       CLEAR      1  -5  77 SW3       30.61R
MOUNT PLEASANT CLEAR     10   0  66 SW3       30.58R
MUSKEGON       MOCLDY    17   5  59 W12       30.61R WCI   4
SOUTH HAVEN    CLEAR      8  -1  66 S5        30.63R WCI   0
$$
MIZ016>042-280400-
NORTHERN LOWER MICHIGAN

CITY           SKY/WX    TMP DP  RH WIND       PRES   REMARKS
ALPENA         CLEAR      1  -5  75 SW3       30.53R
BEAVER ISLAND  CLEAR     13   5  69 SW12      30.48R WCI  -1
BELLAIRE       CLOUDY    12   3  66 SW3       30.53S
CADILLAC       CLEAR      3  -3  77 SW6       30.48R WCI  -8
CHARLEVOIX     FAIR      11   4  72 S3        30.53R
FRANKFORT      MOCLDY    18   8  63 W10G18    30.53R WCI   7
GAYLORD        MOCLDY     6   1  80 SW10      30.45R WCI  -9
GRAYLING       CLEAR     -7 -11  83 CALM      30.50R FOG
HARBOR SPRINGS CLEAR      9   2  75 W3        30.49S
HOUGHTON LAKE  CLEAR      5  -4  66 SW5       30.52R WCI  -4
MANISTEE       CLOUDY     9   0  66 CALM      30.55S
OSCODA         CLEAR      6  -3  68 SW7       30.55R WCI  -6
PELLSTON       CLEAR      2  -2  83 S5        30.49S WCI  -8
ROGERS CITY    CLEAR      7   2  78 SW5       30.52S WCI  -1
TRAVERSE CITY  CLEAR     10   1  67 VRB3      30.52R
$$
MIZ007>008-015-280400-
EASTERN UPPER MICHIGAN

CITY           SKY/WX    TMP DP  RH WIND       PRES   REMARKS
KINROSS        CLEAR      3   1  92 SW3       30.46R
MACKINAC ISLAN CLEAR      7   1  76 SW10      30.47S WCI  -8
NEWBERRY       CLEAR      5   1  84 S8        30.42S WCI  -8
S. S. MARIE    CLEAR      2  -5  72 CALM      30.46R
MUNISING         N/A     10  -1  61 SW8       30.43R WCI  -2
$$
MIZ004>006-011>014-085-280400-
CENTRAL UPPER MICHIGAN

CITY           SKY/WX    TMP DP  RH WIND       PRES   REMARKS
MANISTIQUE     CLEAR     14   2  60 SW8       30.45S WCI   3
ESCANABA       CLEAR     12  -2  52 SW9       30.47R WCI   0
MENOMINEE      CLEAR     10  -6  48 SW6       30.51R WCI   1
SAWYER-GWINN   CLEAR      0  -6  78 CALM      30.38R
$$
MIZ001>003-009>011-084-280400-
WESTERN UPPER MICHIGAN

CITY           SKY/WX    TMP DP  RH WIND       PRES   REMARKS
IRON MOUNTAIN  CLEAR     10  -5  50 W7        30.41R WCI  -1
HOUGHTON       CLEAR     10  -8  44 W13       30.36R WCI  -5
COPPER HARBOR    N/A     13  -6  42 VRB6      30.37F WCI   4
IRONWOOD       CLEAR      9  -8  47 SW8       30.39R WCI  -4
$$

ABBREVIATIONS USED IN REMARKS
   TC - TEMPERATURE IN CELSIUS
  WCI - WIND CHILL INDEX
   HX - HEAT INDEX
  VSB - VISIBILITY



USA.gov is the U.S. government's official web portal to all federal, state and local government web resources and services.